Casper, WY

6:43 PM MST on December 16, 2017 (GMT -0700)
Natrona County International

Weather History for KCPR - April, 2013

Change the Weather History Date:

Monday, April 8, 2013

  Actual Average Record
Temperature  
Mean Temperature 29 °F 41 °F  
Max Temperature 45 °F 55 °F 73 °F (1977)
Min Temperature 13 °F 27 °F 6 °F (1982)
Degree Days  
Heating Degree Days 36 24  
Month to date heating degree days 172 201  
Since 1 July heating degree days 6183 6574  
Cooling Degree Days 0 0  
Month to date cooling degree days 0 0  
Year to date cooling degree days 0 0  
Moisture  
Dew Point 16 °F    
Average Humidity 65    
Maximum Humidity 84    
Minimum Humidity 45    
Precipitation  
Precipitation 0.42 in 0.04 in 0.42 in (2013)
Month to date precipitation 0.43 0.28  
Year to date precipitation 2.05 2.18  
Snow  
Snow 0.00 in 0.40 in - ()
Month to date snowfall 0.0 3.5  
Since 1 July snowfall 43.2 63.8  
Snow Depth -    
Sea Level Pressure  
Sea Level Pressure 29.86 in    
Wind  
Wind Speed 19 mph (NNE)    
Max Wind Speed 32 mph    
Max Gust Speed 39 mph    
Visibility 4 miles    
Events Fog , Snow    
T = Trace of Precipitation, MM = Missing Value Source: NWS Daily Summary

Daily Weather History Graph

Daily Weather History Graph

Search for Another Location

Airport or City:

Trip Planner

Search our weather history database for the weather conditions in past years. The results will help you decide how hot, cold, wet, or windy it might be!

Date:

Astronomy

Apr. 08, 2013 Rise Set
Actual Time 6:35 AM MDT 7:40 PM MDT
Civil Twilight 6:06 AM MDT 8:09 PM MDT
Nautical Twilight 5:31 AM MDT 8:44 PM MDT
Astronomical Twilight 4:55 AM MDT 9:20 PM MDT
Moon 5:29 AM MDT (4/8) 6:16 PM MDT (4/8)
Length of Visible Light 14h 03m
Length of Day
13h 05m
Waning Crescent, 3% of the Moon is Illuminated
Apr 8
Waning Crescent
Apr 10
New
Apr 18
First Quarter
Apr 25
Full
May 2
Last Quarter

Hourly Weather History & Observations

Time (MDT) Temp. Windchill Dew Point Humidity Pressure Visibility Wind Dir Wind Speed Gust Speed Precip Events Conditions
12:53 AM 45.0 °F 40.6 °F 25.0 °F 46% 29.55 in 10.0 mi SW 8.1 mph - N/A   Mostly Cloudy
1:53 AM 42.1 °F 36.1 °F 24.1 °F 49% 29.56 in 10.0 mi WSW 10.4 mph - N/A   Clear
2:53 AM 39.0 °F 36.8 °F 24.1 °F 55% 29.55 in 10.0 mi WNW 3.5 mph - N/A   Clear
3:53 AM 32.0 °F 26.4 °F 23.0 °F 69% 29.54 in 10.0 mi West 5.8 mph - N/A   Clear
4:53 AM 37.9 °F 30.5 °F 26.1 °F 62% 29.55 in 10.0 mi SW 11.5 mph - N/A   Clear
5:53 AM 37.0 °F 31.6 °F 26.1 °F 65% 29.56 in 10.0 mi WSW 6.9 mph - N/A   Partly Cloudy
6:53 AM 36.0 °F 28.5 °F 26.1 °F 67% 29.61 in 10.0 mi North 10.4 mph - N/A   Scattered Clouds
7:27 AM 37.4 °F 27.8 °F 32.0 °F 81% 29.69 in 10.0 mi North 17.3 mph - N/A   Overcast
7:36 AM 35.6 °F 24.8 °F 28.4 °F 75% 29.69 in 10.0 mi NNE 19.6 mph 27.6 mph N/A   Overcast
7:53 AM 32.0 °F 19.2 °F 26.1 °F 79% 29.68 in 10.0 mi NNE 23.0 mph 28.8 mph N/A   Overcast
8:53 AM 30.0 °F 16.9 °F 24.1 °F 79% 29.71 in 10.0 mi NNE 21.9 mph - N/A   Overcast
9:36 AM 30.2 °F 16.8 °F 23.0 °F 75% 29.74 in 10.0 mi NNE 23.0 mph 26.5 mph N/A   Overcast
9:45 AM 28.4 °F 15.4 °F 21.2 °F 74% 29.75 in 10.0 mi NE 19.6 mph 26.5 mph N/A   Overcast
9:53 AM 28.9 °F 16.5 °F 21.9 °F 75% 29.75 in 10.0 mi NNE 18.4 mph 25.3 mph N/A   Overcast
10:53 AM 28.0 °F 13.6 °F 21.0 °F 75% 29.78 in 10.0 mi NNE 24.2 mph 31.1 mph N/A   Overcast
11:53 AM 26.1 °F 11.0 °F 19.9 °F 78% 29.80 in 3.0 mi NNE 24.2 mph 34.5 mph 0.00 in Snow Light Snow
12:00 PM 26.6 °F 11.4 °F 19.4 °F 74% 29.78 in 4.0 mi NNE 25.3 mph 34.5 mph 0.00 in Snow Light Snow
12:25 PM 26.6 °F 12.7 °F 19.4 °F 74% 29.78 in 2.5 mi NNE 20.7 mph 32.2 mph 0.00 in Snow Light Snow
12:53 PM 26.1 °F 10.4 °F 19.9 °F 78% 29.79 in 1.8 mi NNE 26.5 mph 33.4 mph 0.00 in Snow Light Snow
1:53 PM 25.0 °F 8.9 °F 19.0 °F 78% 29.81 in 3.0 mi NNE 26.5 mph 35.7 mph 0.00 in Snow Light Snow
2:53 PM 23.0 °F 6.3 °F 15.1 °F 72% 29.86 in 10.0 mi NNE 26.5 mph 34.5 mph 0.00 in   Overcast
3:46 PM 19.4 °F 2.5 °F 15.8 °F 86% 29.84 in 2.0 mi NNE 23.0 mph - 0.01 in Snow Light Snow
3:53 PM 19.9 °F 3.9 °F 14.0 °F 78% 29.94 in 2.0 mi NNE 20.7 mph 27.6 mph 0.01 in Snow Light Snow
4:13 PM 19.4 °F 2.1 °F 14.0 °F 80% 29.85 in 1.0 mi NNE 24.2 mph 28.8 mph 0.01 in Snow Light Snow
4:21 PM 19.4 °F 3.6 °F 15.8 °F 86% 29.85 in 0.5 mi NNE 19.6 mph 28.8 mph 0.02 in Snow Snow
4:42 PM 19.4 °F 4.5 °F 15.8 °F 86% 29.87 in 0.2 mi NE 17.3 mph 25.3 mph 0.04 in Snow Heavy Snow
4:53 PM 19.0 °F 3.6 °F 15.1 °F 85% 29.96 in 0.2 mi NNE 18.4 mph - 0.05 in Fog , Snow Snow
5:01 PM 19.4 °F 6.0 °F 15.8 °F 86% 29.89 in 0.2 mi NNE 13.8 mph 24.2 mph 0.01 in Fog , Snow Snow
5:53 PM 18.0 °F 2.6 °F 14.0 °F 84% 29.99 in 0.2 mi NNE 17.3 mph - 0.07 in Fog , Snow Snow
6:36 PM 17.6 °F 1.3 °F 12.2 °F 79% 29.93 in 0.5 mi NE 19.6 mph 26.5 mph 0.05 in Fog , Snow Snow
6:53 PM 17.1 °F 0.1 °F 12.0 °F 81% 30.02 in 0.5 mi NE 20.7 mph 28.8 mph 0.06 in Snow Snow
7:01 PM 17.6 °F 0.5 °F 12.2 °F 79% 29.93 in 0.2 mi NE 21.9 mph 28.8 mph 0.00 in Snow Heavy Snow
7:33 PM 15.8 °F 0.3 °F 12.2 °F 86% 29.94 in 0.5 mi NE 16.1 mph - 0.04 in Fog , Snow Snow
7:53 PM 16.0 °F 0.1 °F 10.9 °F 81% 30.06 in 0.5 mi NNE 17.3 mph 25.3 mph 0.05 in Snow Snow
8:10 PM 15.8 °F 2.7 °F 12.2 °F 86% 29.96 in 0.5 mi NE 11.5 mph 20.7 mph 0.02 in Snow Light Snow
8:53 PM 15.1 °F -2.0 °F 10.9 °F 84% 30.10 in 1.0 mi NNE 19.6 mph 29.9 mph 0.06 in Snow Light Snow
9:11 PM 15.8 °F -0.6 °F 10.4 °F 79% 29.97 in 2.0 mi NE 18.4 mph 26.5 mph 0.01 in Snow Light Snow
9:32 PM 15.8 °F -0.6 °F 10.4 °F 79% 29.98 in 2.0 mi NE 18.4 mph 28.8 mph 0.01 in Snow Light Snow
9:46 PM 15.8 °F -1.9 °F 10.4 °F 79% 29.98 in 4.0 mi NE 21.9 mph 27.6 mph 0.01 in Snow Light Snow
9:53 PM 15.1 °F -3.3 °F 9.0 °F 77% 30.12 in 4.0 mi NE 23.0 mph 32.2 mph 0.01 in Snow Light Snow
10:04 PM 14.0 °F -5.5 °F 8.6 °F 79% 29.98 in 2.5 mi NE 25.3 mph 34.5 mph 0.00 in Snow Light Snow
10:14 PM 14.0 °F -5.8 °F 8.6 °F 79% 29.99 in 1.2 mi NE 26.5 mph 32.2 mph 0.00 in Snow Light Snow
10:42 PM 14.0 °F -3.9 °F 8.6 °F 79% 29.98 in 1.0 mi NE 20.7 mph 27.6 mph 0.02 in Snow Light Snow
10:49 PM 14.0 °F -4.7 °F 8.6 °F 79% 29.99 in 0.8 mi NE 23.0 mph 33.4 mph 0.02 in Snow Light Snow
10:53 PM 14.0 °F -3.9 °F 9.0 °F 80% 30.13 in 0.8 mi NE 20.7 mph 33.4 mph 0.02 in Snow Light Snow
11:05 PM 14.0 °F -1.4 °F 8.6 °F 79% 30.00 in 0.8 mi NE 15.0 mph - 0.02 in Snow Light Snow
11:11 PM 14.0 °F -4.7 °F 8.6 °F 79% 30.01 in 1.0 mi NE 23.0 mph - 0.02 in Snow Light Snow
11:27 PM 12.2 °F -5.8 °F 8.6 °F 85% 30.02 in 0.8 mi NE 19.6 mph - 0.03 in Snow Light Snow
11:53 PM 12.9 °F -7.3 °F 8.1 °F 81% 30.18 in 0.8 mi NNE 26.5 mph 33.4 mph 0.05 in Snow Light Snow